Location: Altenschlag
(48.5333°N, 14.1667°E)
Time: 01:12:55
(UTC+00:00)

Daily predictions for brighter satellites

Satellite Brightness Start Highest point End
(mag) Time Altitude Azimuth Time Altitude Azimuth Time Altitude Azimuth
SL-16 R/B 3.4 00:02:19 21° SSE 00:05:00 31° ESE 00:09:56 10° NE
SL-16 R/B 3.5 00:01:30 10° SE 00:07:21 46° ENE 00:13:16 10° N
Lacrosse 5 2.8 00:07:00 29° SSE 00:08:17 34° SE 00:12:51 10° ENE
USA 306 2.7 00:07:12 43° SW 00:08:29 78° SSE 00:12:41 10° ENE
Cosmos 1980 3.6 00:06:07 33° SSW 00:08:48 87° WNW 00:14:30 10° NNE
Cosmos 371 Rocket 3.4 00:06:52 35° SW 00:08:53 68° WNW 00:13:44 10° NNE
Cosmos 2333 Rocket 4.0 00:07:49 10° W 00:12:28 25° NW 00:17:11 10° NNE
USA 307 2.7 00:11:14 43° SW 00:12:31 74° SSE 00:16:42 10° ENE
Meteor 2-10 Rocket 3.6 00:08:20 10° NNW 00:14:02 80° W 00:16:52 30° S
Cosmos 1269 Rocket 4.1 00:10:59 10° NNW 00:16:17 75° ENE 00:20:15 18° SSE
Cosmos 1709 Rocket 4.0 00:10:17 10° NNW 00:16:22 67° W 00:19:32 29° SSW
Cosmos 304 Rocket 3.7 00:15:45 36° SSW 00:17:43 87° WNW 00:22:36 10° NNE
USA 267 3.8 00:17:02 28° SSW 00:19:09 34° SW 00:25:02 10° WNW
Cosmos 2084 Rocket 3.6 00:19:40 40° SSE 00:20:25 47° SE 00:24:06 10° NE
Cosmos 2315 Rocket 4.0 00:18:32 29° SSW 00:22:02 79° W 00:28:27 10° N
USA 229 DEB 4.4 00:19:52 10° NW 00:26:41 41° WSW 00:30:40 24° S
USA 229 4.4 00:19:57 10° NW 00:26:47 41° WSW 00:30:48 24° S
Meteor 1-24 Rocket 4.0 00:25:27 25° S 00:28:43 62° E 00:34:05 10° NNE
COSMOS 2455 4.1 00:25:36 17° SSE 00:29:04 29° ESE 00:34:09 10° NE
Cosmos 1455 3.1 00:27:53 10° N 00:31:27 43° ENE 00:33:50 18° SE
Cosmos 2219 Rocket 4.0 00:27:07 10° W 00:31:34 24° NW 00:36:03 10° N
MOZ.5/SAFIR/RUBIN 5/SL-8 4.0 00:34:54 31° SSW 00:36:56 56° W 00:41:38 10° NNW
CZ-2D R/B 2.4 00:32:17 10° NNE 00:37:37 60° ESE 00:40:53 23° S
Cosmos 1271 Rocket 4.4 00:35:39 10° N 00:39:06 31° ENE 00:42:35 10° SE
Cosmos 1455 Rocket 3.2 00:36:10 10° NNW 00:40:34 58° W 00:42:27 32° SSW
USA 308 2.9 00:40:45 24° WSW 00:43:13 77° NNW 00:47:26 10° ENE
Cosmos 1300 3.9 00:40:05 10° NNW 00:43:17 26° W 00:43:56 25° WSW
Cosmos 1536 Rocket 4.4 00:48:05 18° SSE 00:51:04 45° E 00:55:16 10° NNE
Meteor 2-5 Rocket 3.8 00:50:14 25° SSW 00:53:44 76° WNW 00:59:25 10° N
SAR-Lupe-2 4.3 00:52:48 10° NNE 00:56:17 46° E 00:58:15 22° SSE
ERBS 2.8 00:55:13 25° W 00:56:40 48° NNW 00:59:40 10° NE
CZ-4C R/B 4.3 00:51:50 10° WNW 00:57:04 20° WSW 00:59:24 18° SW
Cosmos 1975 Rocket 3.6 00:56:40 26° SW 00:58:47 46° WNW 01:03:06 10° N
Nadezhda 1 Rocket 4.4 00:55:14 14° S 01:00:36 62° E 01:06:47 10° NNE
Cosmos 2237 Rocket 3.0 00:56:44 17° WSW 01:00:43 42° NW 01:06:10 10° NNE
Cosmos 1025 Rocket 3.4 01:00:08 27° SW 01:02:14 51° WNW 01:06:27 10° N
Resurs 1-4 Rocket 2.1 00:58:13 10° NNE 01:03:30 82° WNW 01:07:01 22° SSW
SME Rocket 4.0 01:03:28 25° SW 01:05:10 36° W 01:09:55 10° NNW
USA 305 3.4 01:02:26 13° W 01:06:06 56° NNW 01:10:13 10° ENE
CZ-4 R/B 3.8 01:05:39 10° N 01:10:18 70° WNW 01:13:13 22° SSW
YAOGAN 11 4.1 01:09:44 16° S 01:13:16 76° WSW 01:17:49 10° NNW
Cosmos 1943 Rocket 2.4 01:09:00 10° NW 01:14:29 51° WSW 01:19:23 13° S
IDEFIX/ARIANE 42P 3.0 01:11:18 10° NNE 01:16:33 61° E 01:21:05 14° S
Lacrosse 5 rocket 1.3 01:14:37 25° SSW 01:16:41 63° SE 01:20:44 10° ENE
ADEOS II 2.2 01:12:08 10° NNE 01:17:25 73° ESE 01:21:40 16° S
UNK 3.8 01:15:35 17° S 01:19:05 62° WSW 01:23:41 10° NNW
Cosmos 614 Rocket 3.9 01:14:20 10° NNW 01:19:31 73° WSW 01:24:43 10° SSE
Cosmos 2297 3.8 01:14:40 10° NW 01:20:20 58° WSW 01:25:55 10° S
USA 215 4.4 01:18:54 10° ENE 01:25:00 43° N 01:31:06 10° WNW
Cosmos 1544 Rocket 4.3 01:22:56 10° NNW 01:26:59 36° W 01:29:32 19° SSW
Cosmos 1703 3.5 01:24:41 16° S 01:27:46 69° E 01:31:42 10° NNE
IRS-1D 4.4 01:23:45 10° NNE 01:28:55 48° E 01:34:00 10° S
Cosmos 2278 Rocket 4.1 01:27:46 10° WNW 01:29:22 11° W 01:30:39 10° WSW
Helios 1A 2.9 01:25:18 10° SSE 01:29:30 80° WSW 01:33:46 10° NNW
Cosmos 2251 Rocket 3.5 01:25:14 10° NNW 01:30:32 88° ENE 01:35:50 10° SSE
Cosmos 2154 Rocket 4.1 01:25:01 10° NNW 01:31:19 69° W 01:37:34 10° S
EO 1 Del DPAF 3.0 01:30:09 10° NNE 01:33:41 81° ESE 01:36:19 17° S
MOS 1 Rocket 3.4 01:33:16 16° SSW 01:36:28 47° W 01:40:40 10° NNW
NPP 4.0 01:32:03 10° N 01:37:18 54° WNW 01:41:35 15° SW
Cosmos 2369 Rocket 2.1 01:38:06 10° NNW 01:43:42 73° WSW 01:49:15 10° SSE
Cosmos 1656 Rocket 3.6 01:41:40 10° NNW 01:47:07 84° WSW 01:52:32 10° SSE
USA 306 4.0 01:44:20 10° W 01:48:19 43° N 01:52:19 10° ENE
SL-16 R/B 2.7 01:44:11 14° SW 01:48:54 49° NW 01:54:25 10° NNE
Meteor 1-28 Rocket 3.7 01:46:34 14° SSW 01:49:31 40° W 01:53:04 10° NNW
CZ-2C R/B 4.4 01:45:50 10° NE 01:50:07 26° E 01:54:18 10° SSE
Lacrosse 5 2.2 01:46:10 11° WSW 01:51:02 65° NNW 01:56:08 10° NE
SL-16 R/B 3.2 01:45:54 12° SSW 01:51:04 36° W 01:56:47 10° NNW
Meteor 1-21 Rocket 4.3 01:46:00 10° S 01:51:37 81° E 01:57:13 10° NNE
Cosmos 1726 Rocket 3.9 01:47:12 10° N 01:51:38 70° ENE 01:56:00 10° SSE
USA 307 3.9 01:48:20 10° W 01:52:21 44° NNW 01:56:23 10° ENE
Cosmos 1455 4.0 02:04:23 10° NW 02:06:34 15° W 02:08:35 11° WSW
Cosmos 1603 3.9 02:06:48 10° SSW 02:12:24 73° ESE 02:18:05 10° NNE
DNEPR-1 R/B 4.0 02:08:55 10° SSW 02:13:03 59° ESE 02:17:41 10° NE
Cosmos 2228 3.7 02:10:10 10° NNW 02:14:10 36° W 02:18:07 10° SSW
Cosmos 407 Rocket 3.5 02:09:09 10° NNW 02:14:28 71° WSW 02:19:42 10° SSE
COSMOS 2455 3.2 02:08:44 10° SW 02:14:38 61° NW 02:20:38 10° NNE
Cosmos 1271 Rocket 4.1 02:11:51 10° NW 02:14:51 22° W 02:17:52 10° SW
Cosmos 2218 Rocket 4.1 02:10:06 10° N 02:16:22 90° WNW 02:22:41 10° S
CZ-2D R/B 3.6 02:13:01 10° N 02:17:15 24° WNW 02:21:26 10° WSW
Cosmos 1140 Rocket 3.6 02:17:29 10° NNW 02:22:39 58° WSW 02:27:46 10° S
USA 308 4.2 02:19:17 10° WNW 02:23:14 39° N 02:27:12 10° ENE
MSX 4.2 02:19:05 10° N 02:24:41 54° WNW 02:30:17 10° SW
SL-24 DEB 4.3 02:20:29 10° S 02:25:13 86° W 02:29:57 10° N
SeaSat 1 4.4 02:21:26 10° NE 02:25:28 25° ESE 02:29:28 10° SSE
NOSS 3-4 (A) 4.4 02:19:58 10° NW 02:26:46 68° NE 02:34:29 10° SE
NOSS 3-4 (C) 4.4 02:20:03 10° NW 02:26:50 67° NE 02:34:31 10° SE
Cosmos 2058 Rocket 3.0 02:24:49 10° NNW 02:29:14 82° W 02:33:35 10° S
Cosmos 2181 Rocket 4.0 02:28:14 10° SSW 02:34:27 77° W 02:40:38 10° N
Cosmos 2098 4.2 02:31:19 10° N 02:34:27 87° E 02:37:26 10° S
Cosmos 1869 4.4 02:31:06 10° N 02:34:55 48° ENE 02:38:41 10° SSE
NOSS 3-3 (A) 4.0 02:30:49 10° SW 02:36:33 83° NW 02:43:14 10° NE
NOSS 3-3 (C) 4.0 02:30:55 10° SW 02:36:39 83° NW 02:43:19 10° NE
